Meteo Giornale » Osservazioni meteo Germania » Hahn

ore: 20:20 - Osservazioni Meteo Hahn
Lat. 49° 57' N Lon. 7° 16' E Alt. 491 metri s.l.m.

sereno

17 °C

Sereno

Temp. 24 Ore

12 °C

20 °C

Ovest

7.4 Km/h

Dew point 8 °C

Umidità 55 %

Visibilità  10 Km

Il sole sorge alle ore 06:46

Il sole tramonta alle ore 20:15

Data e Ora Cielo e Fenomeni T °C DP °C Um. % Pres. hPa Vis. km Vento km/h
Oggi h: 20:20 sereno Sereno 17 8 55 1022 10 O 7.4
Oggi h: 19:50 sereno Sereno 19 8 48 1022 10 O 11.1
Oggi h: 19:20 sereno Sereno 19 7 45 1022 10 O 14.8
Oggi h: 18:50 sereno Sereno 20 8 45 1022 10 O 13
Oggi h: 18:20 sereno Sereno 20 7 42 1022 10 O 16.7
Oggi h: 17:50 sereno Sereno 20 8 45 1022 10 O 18.5
Oggi h: 17:20 sereno Sereno 20 8 45 1022 10 O 18.5
Oggi h: 16:50 sereno Sereno 20 9 49 1022 10 O/NO 18.5
Oggi h: 16:20 sereno Sereno 20 8 45 1022 10 O 16.7
Oggi h: 15:50 sereno Sereno 20 8 45 1022 10 O/SO 22.2
Oggi h: 15:20 sereno Sereno 19 7 45 1022 10 O 22.2
Oggi h: 14:50 nuvoloso Nuvoloso 20 9 49 1023 10 O 22.2
Oggi h: 14:20 nuvoloso Nuvoloso 19 10 55 1023 10 O 20.3
Oggi h: 13:50 nuvoloso Nuvoloso 20 11 56 1023 10 O 20.3
Oggi h: 13:20 nuvoloso Nuvoloso 18 10 59 1023 10 O 20.3
Oggi h: 12:50 nuvoloso Nuvoloso 17 12 72 1023 10 O 16.7
Oggi h: 12:20 poco_nuvoloso Poco Nuvoloso 18 12 67 1023 10 O 20.3
Oggi h: 11:50 poco_nuvoloso Poco Nuvoloso 17 12 72 1023 10 O 16.7
Oggi h: 11:20 poco_nuvoloso Poco Nuvoloso 16 12 77 1023 10 O 22.2
Oggi h: 10:50 poco_nuvoloso Poco Nuvoloso 16 13 82 1023 10 O 14.8
Oggi h: 10:20 nuvoloso Nuvoloso 15 12 82 1023 10 O 14.8
Oggi h: 09:50 nuvoloso Nuvoloso 14 13 93 1023 10 O 16.7
Oggi h: 09:20 molto_nuvoloso Molto Nuvoloso 13 12 93 1022 10 O/SO 18.5
Oggi h: 08:50 molto_nuvoloso Molto Nuvoloso 13 12 93 1022 10 O 20.3
Oggi h: 08:20 molto_nuvoloso Molto Nuvoloso 13 12 93 1022 10 O 14.8
Oggi h: 07:50 poco_nuvoloso Poco Nuvoloso 12 11 93 1022 10 O/SO 13
Oggi h: 07:20 poco_nuvoloso Poco Nuvoloso 12 11 93 1022 10 O/SO 13
Oggi h: 06:50 sereno Sereno 12 11 93 1022 10 O/SO 13
Oggi h: 06:20 sereno Sereno 12 11 93 1022 10 O/SO 13
Oggi h: 05:50 sereno Sereno 12 11 93 1021 10 O/SO 13
Oggi h: 05:20 sereno Sereno 12 11 93 1021 10 O/SO 13
Oggi h: 04:50 sereno Sereno 13 11 87 1021 10 O/SO 13
Oggi h: 04:20 sereno Sereno 13 11 87 1021 10 O/SO 13
Oggi h: 03:50 poco_nuvoloso Poco Nuvoloso 13 11 87 1021 10 O/SO 11.1
Oggi h: 03:20 sereno Sereno 13 12 93 1021 10 O/SO 14.8
Oggi h: 02:50 sereno Sereno 13 12 93 1021 10 SO 13
Oggi h: 02:20 sereno Sereno 13 12 93 1021 10 O/SO 13
Oggi h: 01:50 sereno Sereno 13 12 93 1021 10 O/SO 11.1
Oggi h: 01:20 sereno Sereno 13 12 93 1021 10 O/SO 11.1
Oggi h: 00:50 poco_nuvoloso Poco Nuvoloso 14 12 87 1021 10 O 9.3
Oggi h: 00:20 nuvoloso Nuvoloso 14 13 93 1021 10 O 9.3
Ieri h: 23:50 molto_nuvoloso Molto Nuvoloso 14 13 93 1021 10 O/NO 9.3
Ieri h: 23:20 molto_nuvoloso Molto Nuvoloso 14 13 93 1020 10 O 11.1
Ieri h: 22:50 molto_nuvoloso Molto Nuvoloso 14 13 93 1020 10 O 14.8
Ieri h: 22:20 coperto_pioggia Pioggia 15 13 87 1020 10 O 14.8
Ieri h: 21:50 molto_nuvoloso Molto Nuvoloso 16 12 77 1020 10 O/NO 13
Ieri h: 21:20 molto_nuvoloso Molto Nuvoloso 17 11 67 1019 10 O 20.3
Ieri h: 20:50 poco_nuvoloso Poco Nuvoloso 16 11 72 1018 10 O 9.3